Wind_Speed
24 26 27 28 27 25 24 25 25 25 24 23 23 25 26 27 28 30 32 33 35 37 38 39 40 41 43 45 47 49 50 50 52
24 23 24 26 28 27 26 25 24 24 24 24 23 21 23 24 25 28 31 33 36 38 39 39 40 42 43 44 45 47 48 48 48
29 28 28 27 27 28 27 27 26 25 25 24 24 24 25 24 25 25 26 28 31 34 36 37 38 39 40 42 42 42 42 43 42
32 31 30 30 29 28 27 28 28 27 26 25 25 24 25 26 28 28 29 30 32 32 33 34 35 36 38 38 39 38 37 38 38
33 32 32 32 32 29 28 28 28 28 28 28 28 28 29 29 29 30 30 30 31 33 34 35 37 37 37 38 38 38 39 38 38
35 34 33 33 33 31 30 30 31 31 31 31 31 31 31 33 33 33 33 33 33 34 35 36 37 38 39 41 41 42 43 42 42
35 36 36 36 34 33 34 33 33 34 34 35 36 35 35 36 36 36 36 36 37 36 37 37 38 39 40 42 43 44 44 45 45
34 35 36 38 38 35 34 35 35 36 36 38 40 40 40 40 41 40 39 39 39 38 39 39 40 40 42 43 44 46 46 46 45
33 34 36 35 36 36 36 36 37 38 38 40 41 42 43 44 45 44 42 40 40 40 40 40 40 40 41 42 43 44 44 45 46
37 37 36 35 34 34 36 37 39 40 42 43 45 46 46 45 42 41 41 41 40 42 42 42 42 42 42 42 42 43 45 46 47
40 39 39 38 38 38 37 38 40 41 41 42 43 41 40 41 42 43 44 43 44 44 44 44 44 44 44 43 44 45 46 48 50
44 42 41 40 41 41 41 40 40 40 40 39 41 44 45 47 47 48 48 47 47 46 47 47 45 45 45 44 45 48 49 51 51
45 44 44 43 42 43 43 43 45 45 45 46 47 48 49 51 52 50 50 51 51 50 51 50 48 46 47 48 50 52 53 55 55
50 49 47 45 43 44 44 46 47 48 50 49 51 52 54 54 55 55 52 54 56 53 51 50 50 50 51 53 53 54 55 57 58
51 49 48 47 44 45 45 48 51 52 52 52 54 55 55 54 51 51 52 52 52 52 50 51 52 51 51 51 53 54 54 56 57
53 51 51 49 50 51 52 54 56 57 56 55 56 55 51 50 53 56 54 53 53 53 54 54 53 53 52 50 52 54 57 58 59
55 56 57 55 56 56 59 60 58 59 61 60 57 51 51 52 54 54 54 54 54 55 54 53 52 54 55 57 59 60 66 66 68
58 60 59 60 59 59 61 62 63 63 60 61 54 55 55 56 57 54 58 62 62 60 61 58 56 59 60 62 66 67 70 71 69
58 61 63 63 64 65 66 64 65 62 60 59 60 59 59 60 61 63 66 66 64 65 67 66 66 69 68 70 72 76 76 73 73
66 66 67 65 65 65 67 68 66 65 63 64 63 64 65 64 67 72 70 68 70 73 70 69 73 74 72 72 78 79 81 82 86
Wind_Direction
263 264 264 265 266 265 267 269 268 265 266 266 266 268 270 271 271 270 270 270 271 271 272 273 274 275 274 274 274 275 277 279 281
264 268 268 267 269 270 268 267 268 266 267 269 269 271 273 274 275 276 275 274 272 271 271 273 273 273 274 276 279 279 280 281 283
263 267 271 272 271 272 270 267 267 266 266 269 272 275 276 278 281 283 283 280 278 276 276 277 277 279 280 279 281 283 282 283 285
261 263 265 268 269 270 269 266 265 264 265 270 275 280 284 285 286 287 290 289 290 289 286 285 284 283 282 283 283 284 286 286 285
259 261 262 265 266 266 267 267 265 267 270 272 276 281 285 287 290 290 289 290 290 290 289 288 288 289 287 285 285 285 286 287 286
257 260 261 263 265 266 265 265 266 270 273 275 279 283 286 288 289 289 288 286 285 286 287 287 289 289 288 287 287 286 285 285 285
258 258 261 261 264 266 269 266 265 269 272 276 280 281 283 286 288 290 290 289 289 287 286 285 286 286 285 285 285 283 283 283 284
261 260 259 262 262 262 266 271 270 271 273 276 280 282 285 288 290 290 290 288 289 287 286 286 286 286 284 283 283 285 285 285 285
262 262 262 262 265 264 264 266 269 271 272 275 279 282 285 289 291 291 291 289 289 288 286 288 289 289 289 290 290 289 287 286 285
265 265 264 265 265 266 266 267 268 269 270 274 278 281 284 287 289 290 289 288 290 289 288 288 288 289 290 291 289 287 286 285 284
266 266 266 269 269 269 269 270 270 272 273 275 278 280 282 287 290 290 291 291 290 290 288 289 289 290 290 288 287 288 288 286 286
262 266 265 268 270 272 273 271 272 274 274 273 276 278 281 288 291 290 291 289 288 286 287 287 287 288 288 287 288 287 287 287 288
260 263 264 267 271 273 273 271 271 272 272 274 278 280 284 286 289 289 287 287 286 284 284 286 285 282 282 283 284 286 286 285 286
260 262 264 267 269 268 268 268 271 272 275 278 282 283 286 286 288 289 286 284 285 284 284 284 284 281 283 286 287 287 287 286 286
263 262 263 264 266 268 268 269 272 275 276 279 282 287 286 287 286 286 284 283 283 282 280 279 279 283 285 286 287 286 286 286 286
261 260 264 265 265 266 267 270 273 275 278 281 283 284 283 285 285 288 286 282 283 285 283 282 282 281 281 282 282 287 290 289 291
260 263 267 269 266 267 268 273 275 275 279 284 285 280 285 284 285 286 286 286 291 290 287 286 282 283 285 289 292 290 294 292 293
263 267 268 270 270 270 271 273 275 279 280 284 282 282 285 288 288 288 295 293 293 293 293 290 290 290 291 292 295 297 302 300 298
263 264 268 271 270 273 273 278 276 277 281 279 281 281 285 287 288 289 296 294 293 296 292 291 291 293 292 294 294 295 297 301 299
260 264 268 270 273 274 275 276 278 278 276 277 278 282 285 286 294 294 293 294 297 297 294 292 295 295 297 297 298 300 299 302 303
Height
10839 10839 10839 10839 10840 10841 10842 10842 10842 10841 10843 10843 10844 10843 10843 10843 10843 10842 10841 10841 10841 10840 10840 10839 10838 10837 10837 10835 10834 10832 10830 10829 10828
10834 10834 10834 10834 10835 10836 10837 10837 10836 10836 10837 10838 10838 10838 10838 10838 10837 10836 10835 10835 10835 10834 10834 10833 10832 10831 10830 10828 10827 10825 10824 10823 10821
10829 10830 10830 10830 10830 10831 10832 10832 10832 10831 10832 10833 10833 10833 10832 10832 10831 10831 10830 10829 10828 10828 10826 10825 10825 10824 10823 10821 10820 10819 10817 10815 10813
10823 10824 10824 10825 10825 10826 10826 10827 10826 10826 10827 10828 10827 10828 10827 10826 10825 10825 10824 10823 10822 10820 10819 10818 10817 10817 10815 10814 10812 10810 10809 10807 10805
10817 10817 10818 10819 10820 10821 10820 10820 10820 10821 10821 10822 10822 10822 10822 10821 10820 10819 10818 10817 10815 10814 10813 10812 10811 10809 10808 10806 10805 10803 10801 10800 10798
10811 10811 10812 10812 10813 10815 10815 10815 10815 10815 10815 10816 10817 10816 10815 10815 10814 10813 10813 10812 10810 10808 10807 10805 10804 10802 10801 10799 10798 10796 10794 10792 10790
10805 10806 10806 10805 10807 10809 10810 10810 10810 10810 10810 10810 10810 10810 10809 10809 10808 10806 10805 10804 10803 10802 10800 10799 10798 10796 10794 10792 10790 10788 10786 10785 10783
10799 10799 10800 10799 10800 10803 10804 10805 10805 10804 10804 10803 10802 10802 10801 10800 10800 10799 10798 10797 10795 10794 10793 10792 10791 10789 10786 10784 10782 10780 10778 10776 10774
10792 10793 10793 10792 10793 10795 10796 10797 10798 10797 10797 10796 10795 10794 10793 10793 10792 10790 10790 10789 10787 10786 10785 10784 10783 10781 10779 10776 10774 10772 10769 10768 10765
10787 10787 10788 10787 10786 10787 10789 10789 10789 10789 10789 10789 10788 10787 10786 10785 10784 10783 10782 10781 10780 10779 10777 10776 10775 10773 10771 10769 10766 10763 10761 10758 10756
10780 10781 10781 10781 10780 10780 10782 10782 10781 10781 10781 10781 10780 10780 10779 10778 10777 10775 10774 10772 10771 10770 10768 10767 10766 10764 10762 10759 10757 10754 10751 10749 10746
10772 10773 10774 10774 10772 10772 10773 10773 10773 10773 10773 10773 10773 10771 10771 10770 10768 10767 10765 10763 10761 10760 10759 10757 10756 10755 10753 10750 10747 10744 10741 10738 10735
10763 10765 10765 10766 10765 10763 10763 10764 10764 10764 10763 10763 10763 10762 10761 10759 10758 10757 10754 10752 10750 10749 10748 10747 10746 10744 10741 10738 10736 10733 10730 10726 10724
10753 10755 10756 10756 10756 10754 10753 10754 10754 10754 10754 10754 10752 10751 10750 10749 10746 10745 10742 10740 10738 10738 10737 10736 10735 10732 10730 10728 10725 10722 10719 10715 10712
10744 10745 10746 10746 10746 10745 10744 10744 10744 10744 10744 10743 10742 10740 10738 10736 10735 10733 10731 10729 10727 10726 10726 10724 10722 10721 10718 10715 10712 10710 10707 10703 10700
10734 10734 10735 10735 10736 10736 10734 10733 10733 10732 10733 10732 10732 10730 10728 10726 10724 10721 10718 10717 10716 10715 10713 10711 10710 10707 10704 10702 10699 10697 10693 10690 10686
10722 10723 10725 10726 10725 10725 10723 10723 10722 10720 10721 10720 10719 10717 10716 10714 10712 10708 10706 10704 10703 10701 10700 10698 10696 10694 10692 10689 10686 10683 10679 10675 10672
10712 10713 10713 10713 10714 10714 10713 10712 10711 10710 10710 10707 10706 10704 10702 10699 10697 10695 10694 10692 10689 10687 10684 10684 10683 10681 10678 10674 10670 10666 10663 10659 10654
10698 10699 10700 10700 10702 10702 10702 10702 10700 10699 10697 10696 10693 10692 10689 10686 10684 10682 10681 10679 10677 10674 10671 10669 10666 10665 10663 10659 10654 10650 10646 10642 10638
10686 10688 10688 10688 10688 10689 10689 10689 10689 10688 10685 10684 10681 10679 10677 10675 10672 10668 10665 10664 10661 10658 10655 10653 10651 10648 10645 10641 10637 10633 10629 10624 10619